This is the latest recevied weather packets stored in our database for station/object SA3ARQ-13. If no packets are shown the sender has not sent any weather packets the latest 10 day(s).
| Time | Temp. | Humidity | Pressure | Rain* | Wind** | Luminosity | Snow |
|---|---|---|---|---|---|---|---|
| 1777549918 | 21.11° C | 49% | 1024.2 hPa | - | - | - | - |
| 1777549018 | 21.11° C | 51% | 1024.1 hPa | - | - | - | - |
| 1777548118 | 20.56° C | 51% | 1024.1 hPa | - | - | - | - |
| 1777547218 | 20.56° C | 51% | 1024.2 hPa | - | - | - | - |
| 1777545417 | 19.44° C | 48% | 1024.4 hPa | - | - | - | - |
| 1777544517 | 19.44° C | 47% | 1024.5 hPa | - | - | - | - |
| 1777543617 | 18.89° C | 45% | 1024.5 hPa | - | - | - | - |
| 1777541817 | 18.33° C | 45% | 1024.8 hPa | - | - | - | - |
| 1777540917 | 17.78° C | 45% | 1024.9 hPa | - | - | - | - |
| 1777540017 | 17.22° C | 45% | 1024.9 hPa | - | - | - | - |
| 1777539117 | 16.67° C | 45% | 1025 hPa | - | - | - | - |
| 1777537317 | 15° C | 46% | 1025.2 hPa | - | - | - | - |
| 1777536417 | 13.89° C | 47% | 1025.1 hPa | - | - | - | - |
| 1777532817 | 12.22° C | 47% | 1025.3 hPa | - | - | - | - |
| 1777531917 | 11.67° C | 47% | 1025.2 hPa | - | - | - | - |
| 1777531017 | 11.67° C | 48% | 1025.1 hPa | - | - | - | - |
| 1777530117 | 11.11° C | 48% | 1025 hPa | - | - | - | - |
| 1777529217 | 11.11° C | 48% | 1025 hPa | - | - | - | - |
| 1777528317 | 10.56° C | 49% | 1025.1 hPa | - | - | - | - |
| 1777527417 | 10° C | 49% | 1025 hPa | - | - | - | - |
| 1777526517 | 10° C | 49% | 1024.8 hPa | - | - | - | - |
| 1777525621 | 10° C | 49% | 1024.8 hPa | - | - | - | - |
| 1777524717 | 9.44° C | 50% | 1024.7 hPa | - | - | - | - |
| 1777523817 | 9.44° C | 49% | 1024.8 hPa | - | - | - | - |
| 1777522017 | 9.44° C | 50% | 1024.8 hPa | - | - | - | - |
* Rain since midnight (hover to see other rain measurements)
** Current wind speed in m/s (hover to see current wind gust speed)